EW2093 Weather Reports


time (UTC)temp
C
wind
direction
speed
KPH
gust
KPH
rain 1hr
cm
rain 24hr
cm
rain mn
cm
humidity
%
barometer
mb
20260507065536 5 59 1.6 3.2 0.00 0.10 0.00 96 1013.7
20260507065017 5 59 0.0 4.8 0.00 0.10 0.00 96 1013.7
20260507064518 5 60 0.0 4.8 0.00 0.10 0.00 96 1013.8
20260507064019 5 60 1.6 3.2 0.00 0.10 0.00 96 1013.8
20260507063521 5 60 0.0 3.2 0.00 0.10 0.00 96 1013.8
20260507063021 5 60 0.0 1.6 0.00 0.10 0.00 96 1013.8
20260507062524 5 60 0.0 1.6 0.00 0.10 0.00 96 1013.8
20260507062024 5 60 0.0 3.2 0.00 0.10 0.00 96 1013.9
20260507061526 5 60 0.0 3.2 0.00 0.10 0.00 96 1013.8
20260507061027 5 60 0.0 1.6 0.00 0.10 0.00 96 1013.9
20260507060528 5 60 0.0 3.2 0.00 0.10 0.00 95 1013.8
20260507060027 5 60 0.0 3.2 0.00 0.10 0.00 95 1013.8
20260507055525 5 60 0.0 3.2 0.00 0.10 0.00 95 1013.8
20260507055027 5 60 1.6 3.2 0.00 0.10 0.00 95 1013.8
20260507054531 5 62 1.6 4.8 0.00 0.10 0.00 95 1013.8
20260507054031 5 62 1.6 4.8 0.00 0.10 0.00 95 1013.8
20260507053532 5 64 1.6 4.8 0.00 0.10 0.00 95 1013.8
20260507053032 5 64 1.6 4.8 0.00 0.10 0.00 95 1013.8
20260507052534 5 57 0.0 3.2 0.00 0.10 0.00 95 1013.9
20260507052036 5 57 1.6 3.2 0.00 0.10 0.00 95 1013.9
20260507051538 5 57 1.6 4.8 0.00 0.10 0.00 95 1013.8
20260507051017 5 57 0.0 4.8 0.00 0.10 0.00 95 1013.8
20260507050519 5 52 0.0 3.2 0.00 0.10 0.00 95 1013.8
20260507050020 5 52 0.0 4.8 0.00 0.10 0.00 95 1013.7
20260507045521 5 51 1.6 4.8 0.00 0.10 0.00 95 1013.7
20260507045019 5 152 1.6 3.2 0.00 0.10 0.00 95 1013.8
20260507044520 5 157 0.0 3.2 0.00 0.10 0.00 95 1013.9
20260507044043 5 162 0.0 3.2 0.00 0.10 0.00 95 1013.9
20260507043525 5 178 0.0 0.0 0.00 0.10 0.00 95 1014.0
20260507043029 5 179 0.0 0.0 0.00 0.10 0.00 95 1014.0
20260507042530 5 179 0.0 0.0 0.00 0.10 0.00 95 1013.9
20260507042032 5 180 0.0 0.0 0.00 0.10 0.00 95 1013.9
20260507041533 5 180 0.0 0.0 0.00 0.10 0.00 95 1014.0
20260507041034 5 180 0.0 0.0 0.00 0.10 0.00 95 1014.0
20260507040529 5 180 0.0 0.0 0.00 0.10 0.00 95 1014.0
20260507040029 5 180 0.0 0.0 0.00 0.10 0.00 95 1014.0
20260507035552 5 180 0.0 0.0 0.00 0.10 0.00 95 1014.0
20260507035032 5 180 0.0 1.6 0.00 0.10 0.00 95 1014.0
20260507034533 5 180 0.0 1.6 0.00 0.10 0.00 95 1014.0
20260507034034 5 182 0.0 1.6 0.00 0.10 0.00 95 1014.1
20260507033537 5 182 0.0 0.0 0.00 0.10 0.00 95 1014.1
20260507033018 5 182 0.0 0.0 0.00 0.10 0.00 95 1014.2
20260507032521 5 182 0.0 0.0 0.00 0.10 0.00 95 1014.2
20260507032024 5 182 0.0 0.0 0.00 0.10 0.00 95 1014.2
20260507031526 5 182 0.0 0.0 0.00 0.10 0.00 95 1014.1
20260507031026 5 182 0.0 1.6 0.00 0.10 0.00 95 1014.2
20260507030526 5 182 0.0 3.2 0.00 0.10 0.00 95 1014.1
20260507030026 5 182 1.6 3.2 0.00 0.10 0.00 95 1014.2
20260507025526 5 93 0.0 0.0 0.00 0.10 0.00 95 1014.1
20260507025027 5 93 0.0 0.0 0.00 0.10 0.00 95 1014.0
20260507024527 4 93 0.0 0.0 0.00 0.10 0.00 95 1014.1
20260507024030 4 93 0.0 1.6 0.00 0.10 0.00 95 1014.1
20260507023532 4 93 0.0 1.6 0.00 0.10 0.00 95 1014.1
20260507023032 4 93 0.0 1.6 0.00 0.10 0.00 95 1014.2
20260507022536 4 93 0.0 1.6 0.00 0.10 0.00 95 1014.2
20260507022034 3 93 0.0 1.6 0.00 0.10 0.00 95 1014.2
20260507021535 3 93 0.0 0.0 0.00 0.10 0.00 95 1014.2
20260507021018 3 93 0.0 0.0 0.00 0.10 0.00 95 1014.3
20260507020521 3 93 0.0 0.0 0.00 0.10 0.00 95 1014.3
20260507020022 3 93 0.0 0.0 0.00 0.10 0.00 95 1014.4
20260507015525 3 93 0.0 0.0 0.00 0.10 0.00 94 1014.4
20260507015024 3 94 0.0 0.0 0.00 0.10 0.00 94 1014.5
20260507014531 3 94 0.0 0.0 0.00 0.10 0.00 94 1014.4
20260507014032 3 94 0.0 0.0 0.00 0.10 0.00 94 1014.4
20260507013533 3 94 0.0 1.6 0.00 0.10 0.00 94 1014.4
20260507013033 3 94 0.0 1.6 0.00 0.10 0.00 94 1014.4
20260507012533 3 94 0.0 1.6 0.00 0.10 0.00 94 1014.4
20260507012032 3 93 0.0 0.0 0.00 0.10 0.00 94 1014.5
20260507011534 3 93 0.0 0.0 0.00 0.10 0.00 94 1014.5
20260507011034 3 93 0.0 1.6 0.00 0.10 0.00 94 1014.6
20260507010535 3 93 0.0 3.2 0.00 0.10 0.00 94 1014.5
20260507010057 3 93 0.0 0.0 0.00 0.10 0.00 94 1014.5
20260507005536 3 93 0.0 0.0 0.00 0.10 0.00 94 1014.6
20260507005018 3 93 0.0 0.0 0.00 0.10 0.00 94 1014.7
20260507004541 3 93 0.0 0.0 0.00 0.10 0.00 94 1014.7
20260507004021 3 93 0.0 1.6 0.00 0.10 0.00 94 1014.7
20260507003549 3 93 0.0 1.6 0.00 0.10 0.00 94 1014.8
20260507003028 3 93 0.0 3.2 0.00 0.10 0.00 94 1014.8
20260507002529 3 94 1.6 3.2 0.00 0.10 0.00 94 1014.9
20260507002030 4 94 0.0 0.0 0.00 0.10 0.00 94 1014.8
20260507001529 4 94 0.0 0.0 0.00 0.10 0.00 94 1014.9
20260507001030 4 94 0.0 1.6 0.00 0.10 0.00 94 1014.9
20260507000531 4 94 0.0 1.6 0.00 0.10 0.00 94 1014.9
20260507000032 4 94 0.0 0.0 0.00 0.10 0.00 94 1014.9
20260506235535 4 94 0.0 0.0 0.00 0.10 0.00 94 1014.9
20260506235036 4 94 0.0 0.0 0.00 0.10 0.00 94 1014.9
20260506234518 4 94 0.0 0.0 0.00 0.10 0.00 94 1014.9
20260506234020 4 94 0.0 0.0 0.00 0.10 0.00 94 1014.9
20260506233521 5 94 0.0 0.0 0.00 0.10 0.00 93 1015.0
20260506233018 5 94 0.0 0.0 0.00 0.10 0.00 93 1015.0
20260506232541 5 94 0.0 0.0 0.00 0.10 0.00 93 1015.0
20260506232020 5 94 0.0 0.0 0.00 0.10 0.00 93 1015.0
20260506231521 5 94 0.0 1.6 0.00 0.10 0.00 93 1015.0
20260506231024 5 94 0.0 1.6 0.00 0.10 0.00 93 1015.1
20260506230526 5 94 0.0 0.0 0.00 0.10 0.00 93 1015.0
20260506230019 5 94 0.0 1.6 0.00 0.10 0.00 93 1015.0
20260506225520 5 94 0.0 3.2 0.00 0.10 0.00 93 1015.1
20260506225041 5 94 1.6 3.2 0.00 0.10 0.00 93 1015.1
20260506224522 5 94 0.0 1.6 0.00 0.10 0.00 92 1015.1
20260506224025 5 94 0.0 3.2 0.00 0.10 0.00 92 1015.1
20260506223527 5 94 1.6 3.2 0.00 0.10 0.00 92 1015.1
20260506223030 6 94 0.0 0.0 0.00 0.10 0.00 93 1015.0
20260506222601 6 94 0.0 0.0 0.00 0.10 0.00 93 1015.0
20260506222040 6 94 0.0 0.0 0.00 0.10 0.00 93 1015.1
20260506221532 6 94 0.0 4.8 0.00 0.10 0.00 93 1015.2
20260506221042 6 94 1.6 4.8 0.00 0.10 0.00 93 1015.2
20260506220534 6 95 1.6 3.2 0.00 0.10 0.00 92 1015.3
20260506220034 6 223 1.6 3.2 0.00 0.10 0.00 92 1015.3
20260506215536 6 223 1.6 3.2 0.00 0.10 0.03 92 1015.4
20260506215103 6 224 0.0 0.0 0.00 0.10 0.03 92 1015.4
20260506214524 6 224 0.0 1.6 0.00 0.10 0.03 91 1015.3
20260506214045 6 224 0.0 3.2 0.00 0.10 0.03 92 1015.4
20260506213526 6 224 0.0 3.2 0.00 0.10 0.03 91 1015.3
20260506213027 6 224 0.0 3.2 0.00 0.10 0.03 91 1015.3
20260506212520 6 224 0.0 3.2 0.00 0.10 0.03 91 1015.3
20260506212047 7 224 0.0 0.0 0.00 0.10 0.03 91 1015.3
20260506211548 7 224 0.0 0.0 0.00 0.10 0.03 91 1015.3
20260506211029 7 224 0.0 0.0 0.00 0.10 0.03 91 1015.2
20260506210530 7 224 0.0 1.6 0.00 0.10 0.03 91 1015.2
20260506210032 7 224 0.0 3.2 0.00 0.10 0.03 91 1015.3
20260506205533 7 224 1.6 3.2 0.00 0.10 0.03 90 1015.4
20260506205034 7 225 0.0 0.0 0.00 0.10 0.03 91 1015.3
20260506204534 7 225 0.0 3.2 0.00 0.10 0.03 91 1015.3
20260506204035 7 225 1.6 3.2 0.00 0.10 0.03 90 1015.2
20260506203535 7 225 3.2 3.2 0.00 0.10 0.03 90 1015.2
20260506203035 7 225 0.0 3.2 0.00 0.10 0.03 89 1015.1
20260506202555 8 225 1.6 3.2 0.00 0.10 0.03 89 1015.2
20260506202035 8 226 0.0 3.2 0.00 0.10 0.03 89 1015.1
20260506201517 8 226 0.0 4.8 0.00 0.10 0.03 88 1015.1
20260506201039 8 226 3.2 4.8 0.00 0.10 0.03 89 1015.1
20260506200518 8 321 0.0 3.2 0.00 0.10 0.03 88 1015.0
20260506200020 8 321 0.0 4.8 0.00 0.10 0.03 88 1014.9
20260506195521 9 321 1.6 4.8 0.00 0.10 0.03 88 1014.9
20260506195023 9 316 1.6 3.2 0.00 0.10 0.03 87 1014.8
20260506194526 9 316 1.6 3.2 0.00 0.10 0.03 87 1014.8
20260506194055 9 316 1.6 3.2 0.00 0.10 0.03 86 1014.7
20260506193535 9 316 1.6 3.2 0.00 0.10 0.03 86 1014.8
20260506193035 10 316 1.6 3.2 0.00 0.10 0.03 85 1014.8
20260506192556 10 316 1.6 3.2 0.00 0.10 0.03 84 1014.7
20260506192036 10 316 1.6 4.8 0.00 0.10 0.03 83 1014.6
20260506191538 10 316 3.2 4.8 0.00 0.10 0.03 83 1014.5
20260506191018 10 337 1.6 4.8 0.00 0.10 0.03 82 1014.5
20260506190539 11 338 1.6 4.8 0.00 0.10 0.03 81 1014.5
20260506190042 11 303 1.6 4.8 0.00 0.10 0.03 81 1014.4
20260506185544 11 300 3.2 4.8 0.00 0.10 0.03 80 1014.4
20260506185026 11 301 1.6 8.0 0.00 0.10 0.03 80 1014.4
20260506184528 11 306 3.2 8.0 0.00 0.10 0.03 79 1014.4
20260506184027 12 322 3.2 6.4 0.00 0.10 0.03 79 1014.4
20260506183528 12 356 3.2 6.4 0.00 0.10 0.03 79 1014.4
20260506183048 12 303 1.6 4.8 0.00 0.10 0.03 79 1014.4
20260506182530 12 303 1.6 8.0 0.00 0.10 0.03 78 1014.4
20260506182030 12 307 4.8 8.0 0.00 0.10 0.03 78 1014.3
20260506181531 12 303 4.8 6.4 0.00 0.10 0.03 78 1014.3
20260506181032 12 313 3.2 6.4 0.00 0.10 0.03 79 1014.3
20260506180536 12 311 4.8 9.7 0.00 0.10 0.03 79 1014.3
20260506180036 12 2 3.2 9.7 0.00 0.10 0.03 79 1014.3
20260506175520 12 2 3.2 8.0 0.00 0.10 0.03 79 1014.3
20260506175020 12 12 3.2 8.0 0.00 0.10 0.03 79 1014.4
20260506174528 12 339 4.8 11.3 0.00 0.10 0.03 78 1014.4
20260506174030 12 310 4.8 11.3 0.00 0.10 0.03 79 1014.4
20260506173531 12 83 3.2 11.3 0.00 0.10 0.03 80 1014.4
20260506173032 12 41 4.8 11.3 0.00 0.10 0.03 80 1014.4
20260506172532 12 301 4.8 16.1 0.00 0.10 0.03 81 1014.4
20260506172032 12 29 6.4 16.1 0.00 0.10 0.03 80 1014.4
20260506171531 12 32 8.0 14.5 0.00 0.10 0.03 80 1014.3
20260506171032 12 25 4.8 19.3 0.00 0.10 0.03 80 1014.4
20260506170532 12 55 3.2 19.3 0.00 0.10 0.03 79 1014.4
20260506170035 12 24 6.4 17.7 0.00 0.10 0.03 79 1014.4
20260506165533 12 348 8.0 17.7 0.00 0.10 0.03 80 1014.4
20260506165033 12 41 8.0 12.9 0.00 0.10 0.03 80 1014.3
20260506164533 12 311 4.8 12.9 0.00 0.10 0.03 80 1014.4
20260506164031 12 309 4.8 14.5 0.00 0.10 0.03 80 1014.3
20260506163533 12 24 6.4 16.1 0.00 0.10 0.03 80 1014.4
20260506163034 12 24 9.7 16.1 0.00 0.10 0.03 80 1014.3
20260506162535 12 34 8.0 14.5 0.00 0.10 0.03 81 1014.3
20260506162034 12 2 6.4 14.5 0.00 0.10 0.03 81 1014.4
20260506161536 11 7 6.4 17.7 0.00 0.10 0.03 82 1014.4
20260506161034 11 60 9.7 20.9 0.00 0.10 0.03 81 1014.5
20260506160534 12 68 12.9 20.9 0.00 0.10 0.03 80 1014.5
20260506160037 12 12 6.4 16.1 0.00 0.10 0.03 78 1014.5
20260506155556 12 43 8.0 16.1 0.00 0.20 0.03 78 1014.5
20260506155055 12 350 9.7 14.5 0.00 0.20 0.03 78 1014.5
20260506154534 12 26 6.4 12.9 0.00 0.20 0.03 79 1014.7
20260506154034 12 38 4.8 12.9 0.00 0.20 0.03 80 1014.7
20260506153601 12 56 6.4 12.9 0.00 0.20 0.03 80 1014.7
20260506153040 12 309 3.2 11.3 0.00 0.20 0.03 81 1014.8
20260506152520 12 36 4.8 11.3 0.00 0.20 0.03 80 1014.8
20260506152020 12 288 6.4 11.3 0.00 0.20 0.03 80 1014.7
20260506151537 12 12 6.4 14.5 0.00 0.20 0.03 79 1014.7
20260506151038 12 340 6.4 14.5 0.00 0.20 0.03 79 1014.8
20260506150538 12 316 4.8 14.5 0.00 0.20 0.03 79 1014.8
20260506150039 12 333 4.8 11.3 0.00 0.20 0.03 80 1014.8
20260506145539 12 7 4.8 19.3 0.00 0.20 0.03 79 1014.8
20260506145031 12 298 6.4 19.3 0.00 0.20 0.03 78 1014.9
20260506144600 12 347 8.0 16.1 0.00 0.20 0.03 78 1014.8
20260506144041 12 337 8.0 24.1 0.00 0.20 0.03 79 1014.9
20260506143540 12 20 9.7 24.1 0.00 0.20 0.03 81 1015.0
20260506143040 12 348 8.0 19.3 0.00 0.20 0.03 79 1015.0
20260506142540 12 330 4.8 12.9 0.00 0.20 0.03 79 1015.0
20260506142019 12 7 4.8 19.3 0.00 0.20 0.03 76 1015.0
20260506141520 13 29 6.4 12.9 0.00 0.20 0.03 73 1015.0
20260506141052 13 350 6.4 12.9 0.00 0.20 0.03 72 1014.9
20260506140552 13 351 4.8 11.3 0.00 0.20 0.03 71 1014.9
20260506140030 13 302 4.8 8.0 0.00 0.20 0.03 72 1015.0
20260506135530 13 301 3.2 6.4 0.00 0.20 0.03 73 1015.0
20260506135032 12 299 3.2 11.3 0.00 0.20 0.03 75 1015.1
20260506134533 12 283 3.2 6.4 0.00 0.20 0.03 75 1015.1
20260506134035 12 297 3.2 6.4 0.00 0.20 0.03 74 1015.1
20260506133536 12 301 3.2 9.7 0.00 0.20 0.03 76 1015.1
20260506133059 12 323 3.2 8.0 0.00 0.20 0.03 77 1015.0
20260506132537 12 305 4.8 8.0 0.00 0.20 0.03 76 1015.1
20260506132019 12 298 4.8 8.0 0.00 0.20 0.03 78 1015.2
20260506131520 12 283 3.2 8.0 0.00 0.20 0.03 78 1015.1
20260506131050 12 307 4.8 12.9 0.00 0.20 0.03 77 1015.1
20260506130530 12 312 4.8 12.9 0.00 0.20 0.03 77 1015.1
20260506130030 12 308 4.8 11.3 0.00 0.20 0.03 78 1015.1
20260506125531 12 292 6.4 11.3 0.00 0.71 0.03 77 1015.1
20260506125052 12 349 4.8 11.3 0.00 0.71 0.03 76 1015.0
20260506124530 12 337 6.4 12.9 0.00 0.71 0.03 76 1015.0
20260506124027 12 311 6.4 14.5 0.00 0.71 0.03 76 1015.0
20260506123529 12 12 6.4 17.7 0.00 0.71 0.03 75 1015.0
20260506123030 12 315 8.0 17.7 0.00 0.71 0.03 73 1014.9
20260506122531 13 304 8.0 16.1 0.00 0.71 0.03 72 1014.9
20260506122031 13 284 4.8 9.7 0.00 0.71 0.03 71 1014.9
20260506121532 13 293 4.8 11.3 0.00 0.71 0.03 70 1014.9
20260506121032 13 281 4.8 8.0 0.00 0.71 0.03 73 1014.8
20260506120533 12 296 3.2 8.0 0.00 0.71 0.03 73 1014.8
20260506120121 12 304 3.2 9.7 0.00 0.71 0.03 73 1014.9
20260506115557 12 297 4.8 9.7 0.00 0.99 0.03 73 1014.9
20260506115038 12 303 3.2 11.3 0.00 0.99 0.03 73 1014.9
20260506114520 12 289 4.8 11.3 0.00 0.99 0.03 72 1014.8
20260506114019 13 304 3.2 9.7 0.00 0.99 0.03 71 1014.9
20260506113534 13 305 4.8 9.7 0.00 0.99 0.03 71 1014.8
20260506113018 13 283 3.2 12.9 0.00 0.99 0.03 71 1014.8
20260506112519 13 284 6.4 12.9 0.00 0.99 0.03 70 1014.9
20260506112020 13 328 3.2 8.0 0.00 0.99 0.03 70 1014.9
20260506111520 13 287 3.2 11.3 0.00 0.99 0.03 70 1014.8
20260506111020 13 30 3.2 11.3 0.00 0.99 0.03 70 1014.9
20260506110558 13 44 3.2 12.9 0.00 0.99 0.03 70 1014.9
20260506110019 13 51 4.8 12.9 0.00 0.99 0.03 70 1014.9
20260506105519 13 307 1.6 11.3 0.00 1.40 0.03 71 1014.9
20260506105059 13 315 4.8 11.3 0.00 1.40 0.03 70 1014.9
20260506104521 13 257 4.8 9.7 0.00 1.40 0.03 70 1014.8
20260506104043 13 290 4.8 11.3 0.00 1.40 0.03 69 1014.8
20260506103519 13 285 4.8 16.1 0.00 1.40 0.03 69 1014.8
20260506103021 13 281 8.0 16.1 0.00 1.40 0.03 69 1014.8
20260506102520 13 309 4.8 12.9 0.00 1.40 0.03 70 1014.8
20260506102051 12 286 3.2 16.1 0.00 1.40 0.03 69 1014.8
20260506101529 12 7 9.7 16.1 0.00 1.40 0.03 69 1014.8
20260506101046 12 291 9.7 12.9 0.00 1.40 0.03 70 1014.9
20260506100529 12 291 8.0 16.1 0.00 1.40 0.03 70 1014.9
20260506100030 12 291 9.7 16.1 0.00 1.40 0.03 69 1014.9
20260506095532 12 307 6.4 12.9 0.00 1.40 0.03 68 1014.9
20260506095033 13 320 4.8 12.9 0.00 1.40 0.03 69 1014.8
20260506094556 13 309 6.4 14.5 0.00 1.40 0.03 68 1014.8
20260506094036 13 305 9.7 14.5 0.00 1.40 0.03 70 1014.9
20260506093537 13 300 4.8 11.3 0.00 1.40 0.03 72 1014.9
20260506093058 13 296 3.2 6.4 0.00 1.40 0.03 75 1014.9
20260506092538 12 274 3.2 8.0 0.00 1.40 0.03 75 1014.9
20260506092019 12 286 4.8 8.0 0.00 1.40 0.03 75 1014.9
20260506091521 12 272 4.8 8.0 0.00 1.40 0.03 76 1014.8
20260506091024 12 280 1.6 9.7 0.00 1.40 0.03 79 1014.9
20260506090518 12 311 4.8 9.7 0.00 1.40 0.03 77 1014.8
20260506090019 12 317 4.8 11.3 0.00 1.40 0.03 78 1014.9
20260506085521 12 317 1.6 8.0 0.00 1.40 0.03 83 1014.9
20260506085023 11 133 3.2 6.4 0.00 1.40 0.03 83 1014.9
20260506084525 11 21 3.2 4.8 0.00 1.40 0.03 84 1014.9
20260506084025 10 20 1.6 4.8 0.00 1.40 0.03 85 1014.9
20260506083525 10 20 1.6 4.8 0.00 1.40 0.03 86 1014.9
20260506083032 10 16 1.6 4.8 0.00 1.40 0.03 86 1014.9
20260506082551 10 12 1.6 4.8 0.00 1.40 0.03 86 1014.9
20260506082031 10 12 3.2 4.8 0.00 1.40 0.03 87 1014.9
20260506081532 10 24 3.2 4.8 0.00 1.40 0.03 88 1014.9
20260506081032 10 295 1.6 3.2 0.00 1.40 0.03 89 1014.9
20260506080534 9 295 0.0 3.2 0.00 1.40 0.03 89 1014.9
20260506073036 8 65 1.6 3.2 0.10 1.40 0.03 93 1014.8
20260506072537 8 65 1.6 3.2 0.10 1.40 0.03 93 1014.8
20260506072037 7 65 1.6 3.2 0.10 1.40 0.03 94 1014.8
20260506071559 7 65 1.6 3.2 0.10 1.40 0.03 94 1014.7
20260506071019 7 65 1.6 4.8 0.10 1.40 0.03 94 1014.8
20260506070521 7 70 1.6 4.8 0.10 1.40 0.03 94 1014.7